Tracking 29892 objects as of 21-Nov-2024
HD Live streaming from Space Station
objects crossing your sky now

STARLINK-31890

Track STARLINK-31890 now!
10-day predictions
STARLINK-31890 is classified as:


NORAD ID: 59785
Int'l Code: 2024-093D
Perigee: 450.5 km
Apogee: 451.9 km
Inclination: 43.0 °
Period: 93.5 minutes
Semi major axis: 6822 km
RCS: Unknown
Launch date: May 18, 2024
Source: United States (US)
Launch site: AIR FORCE EASTERN TEST RANGE (AFETR)
Your satellite tracking list
Your tracking list is empty




NASA's NSSDC Master Catalog

Two Line Element Set (TLE):
1 59785U 24093D   24325.58366097 -.00000012  00000-0  69684-5 0  9994
2 59785  42.9989  17.9560 0001066 270.6271  89.4463 15.40695241 30052
Source of the keplerian elements: AFSPC